Weather History for KGUS - November, 2012

Change the Weather History Date:

Monday, November 26, 2012

  Actual Average Record
Temperature  
Mean Temperature 33 °F -  
Max Temperature 40 °F 43 °F 63 °F (2011)
Min Temperature 26 °F 31 °F 19 °F (1996)
Degree Days  
Heating Degree Days 32    
Moisture  
Dew Point 27 °F    
Average Humidity 74    
Maximum Humidity 92    
Minimum Humidity 60    
Precipitation  
Precipitation 0.00 in - - ()
Sea Level Pressure  
Sea Level Pressure 30.23 in    
Wind  
Wind Speed 4 mph (NNW)    
Max Wind Speed 13 mph    
Max Gust Speed -    
Visibility 10 miles    
Events Snow    
Averages and records for this station are not official NWS values.
T = Trace of Precipitation, MM = Missing Value Source: NWS Daily Summary

Daily Weather History Graph

Daily Weather History Graph

Search for Another Location

Airport or City:

Trip Planner

Search our weather history database for the weather conditions in past years. The results will help you decide how hot, cold, wet, or windy it might be!

Date:

Astronomy

Nov. 26, 2012 Rise Set
Actual Time 7:44 AM EST 5:19 PM EST
Civil Twilight 7:14 AM EST 5:49 PM EST
Nautical Twilight 6:40 AM EST 6:23 PM EST
Astronomical Twilight 6:07 AM EST 6:56 PM EST
Moon 4:11 PM EST (11/26) 5:53 AM EST (11/26)
Length of Visible Light 10h 35m
Length of Day
9h 35m
Waxing Gibbous, 97% of the Moon is Illuminated
Nov 26
Waxing Gibbous
Nov 28
Full
Dec 6
Last Quarter
Dec 13
New
Dec 20
First Quarter

Hourly Weather History & Observations

Time (EST) Temp. Windchill Dew Point Humidity Pressure Visibility Wind Dir Wind Speed Gust Speed Precip Events Conditions
12:55 AM 34.9 °F 32.0 °F 28.4 °F 77% 30.05 in 10.0 mi West 3.5 mph - N/A   Scattered Clouds
1:55 AM 33.4 °F 29.1 °F 29.1 °F 84% 30.07 in 10.0 mi SW 4.6 mph - N/A   Overcast
2:55 AM 32.4 °F 26.9 °F 28.2 °F 85% 30.09 in 10.0 mi West 5.8 mph - N/A   Partly Cloudy
3:55 AM 30.0 °F - 25.9 °F 85% 30.10 in 10.0 mi Calm Calm - N/A   Clear
4:55 AM 30.0 °F - 25.7 °F 84% 30.11 in 10.0 mi Calm Calm - N/A   Mostly Cloudy
5:55 AM 26.6 °F - 24.1 °F 90% 30.14 in 10.0 mi Calm Calm - N/A   Clear
6:55 AM 27.9 °F 24.0 °F 24.3 °F 86% 30.16 in 10.0 mi WNW 3.5 mph - N/A   Mostly Cloudy
7:55 AM 26.2 °F - 24.3 °F 92% 30.18 in 10.0 mi Calm Calm - N/A   Scattered Clouds
8:55 AM 28.6 °F - 26.2 °F 91% 30.19 in 10.0 mi Calm Calm - N/A   Scattered Clouds
9:55 AM 35.1 °F - 29.5 °F 80% 30.21 in 10.0 mi Calm Calm - N/A   Partly Cloudy
10:31 AM 37.4 °F 33.8 °F 30.2 °F 75% 30.19 in 10.0 mi NNW 4.6 mph - N/A   Partly Cloudy
10:55 AM 37.9 °F 32.1 °F 29.8 °F 73% 30.22 in 10.0 mi North 8.1 mph - N/A   Partly Cloudy
11:55 AM 39.6 °F 36.3 °F 30.2 °F 69% 30.22 in 10.0 mi NW 4.6 mph - N/A   Overcast
12:55 PM 40.1 °F 38.0 °F 29.3 °F 65% 30.21 in 10.0 mi Variable 3.5 mph - N/A   Overcast
1:55 PM 40.6 °F 37.5 °F 28.6 °F 62% 30.19 in 10.0 mi NW 4.6 mph - N/A   Overcast
2:55 PM 39.9 °F 35.1 °F 27.3 °F 61% 30.20 in 10.0 mi NW 6.9 mph - N/A   Overcast
3:55 PM 39.0 °F 32.8 °F 28.2 °F 65% 30.22 in 10.0 mi NNW 9.2 mph - N/A   Mostly Cloudy
4:55 PM 37.9 °F 33.5 °F 25.9 °F 62% 30.22 in 10.0 mi NNW 5.8 mph - N/A   Overcast
5:52 PM 37.4 °F 32.8 °F 26.6 °F 65% 30.24 in 10.0 mi NW 5.8 mph - N/A   Overcast
5:55 PM 37.4 °F 30.8 °F 27.3 °F 67% 30.24 in 10.0 mi NW 9.2 mph - 0.00 in   Overcast
6:12 PM 35.6 °F 28.0 °F 28.4 °F 75% 30.25 in 10.0 mi NNW 10.4 mph - N/A Snow Light Snow
6:42 PM 35.6 °F - 28.4 °F 75% 30.26 in 10.0 mi Calm Calm - N/A   Mostly Cloudy
6:55 PM 35.8 °F 33.0 °F 26.4 °F 69% 30.26 in 10.0 mi NNW 3.5 mph - 0.00 in   Mostly Cloudy
7:55 PM 35.1 °F 28.6 °F 23.0 °F 61% 30.28 in 10.0 mi NNW 8.1 mph - 0.00 in   Mostly Cloudy
8:08 PM 35.6 °F 27.5 °F 23.0 °F 60% 30.25 in 10.0 mi North 11.5 mph - N/A Snow Light Snow
8:16 PM 35.6 °F 29.9 °F 23.0 °F 60% 30.29 in 10.0 mi NNW 6.9 mph - N/A   Overcast
8:55 PM 34.2 °F 25.2 °F 24.4 °F 68% 30.31 in 10.0 mi North 12.7 mph - 0.00 in   Mostly Cloudy
9:55 PM 33.4 °F 29.1 °F 23.2 °F 66% 30.31 in 10.0 mi North 4.6 mph - N/A   Overcast
10:21 PM 33.8 °F 28.6 °F 23.0 °F 65% 30.31 in 10.0 mi North 5.8 mph - N/A   Overcast
10:25 PM 33.8 °F 27.7 °F 23.0 °F 65% 30.31 in 10.0 mi North 6.9 mph - N/A Snow Light Snow
10:55 PM 31.8 °F 25.4 °F 26.8 °F 82% 30.32 in 9.0 mi North 6.9 mph - 0.00 in Snow Light Snow
11:04 PM 32.0 °F 28.7 °F 26.6 °F 80% 30.32 in 7.0 mi NNE 3.5 mph - N/A Snow Light Snow
11:17 PM 32.0 °F 28.7 °F 26.6 °F 80% 30.32 in 10.0 mi NNE 3.5 mph - N/A Snow Light Snow
11:19 PM 32.0 °F 28.7 °F 26.6 °F 80% 30.32 in 9.0 mi NNE 3.5 mph - N/A Snow Light Snow
11:32 PM 32.0 °F - 26.6 °F 80% 30.32 in 8.0 mi Calm Calm - N/A Snow Light Snow
11:35 PM 32.0 °F - 26.6 °F 80% 30.33 in 10.0 mi Calm Calm - N/A   Scattered Clouds
11:55 PM 31.5 °F - 26.6 °F 82% 30.32 in 10.0 mi Calm Calm - 0.00 in   Clear